Redmond, OR

2:34 PM PST on February 07, 2016 (GMT -0800)
Roberts Field Airport

Weather History for KRDM - January, 2014

Change the Weather History Date:

Monday, January 27, 2014

  Actual Average Record
Temperature  
Mean Temperature 24 °F 34 °F  
Max Temperature 25 °F 44 °F 61 °F (1984)
Min Temperature 23 °F 24 °F -22 °F (1957)
Degree Days  
Heating Degree Days 41 31  
Month to date heating degree days 814 875  
Since 1 July heating degree days 3709 3715  
Cooling Degree Days 0 0  
Month to date cooling degree days 0 0  
Year to date cooling degree days 0 0  
Moisture  
Dew Point 22 °F    
Average Humidity 92    
Maximum Humidity 96    
Minimum Humidity 88    
Precipitation  
Precipitation T in 0.03 in 0.40 in (1959)
Month to date precipitation 0.26 0.87  
Year to date precipitation 0.26 0.87  
Sea Level Pressure  
Sea Level Pressure 30.29 in    
Wind  
Wind Speed 3 mph (NW)    
Max Wind Speed 9 mph    
Max Gust Speed 11 mph    
Visibility 5 miles    
Events Fog , Snow    
T = Trace of Precipitation, MM = Missing Value Source: NWS Daily Summary

Daily Weather History Graph

Daily Weather History Graph

Search for Another Location

Airport or City:

Trip Planner

Search our weather history database for the weather conditions in past years. The results will help you decide how hot, cold, wet, or windy it might be!

Date:

Astronomy

Jan. 27, 2014 Rise Set
Actual Time 7:27 AM PST 5:07 PM PST
Civil Twilight 6:56 AM PST 5:38 PM PST
Nautical Twilight 6:21 AM PST 6:13 PM PST
Astronomical Twilight 5:47 AM PST 6:48 PM PST
Moon 4:16 AM PST (1/27) 1:57 PM PST (1/27)
Length of Visible Light 10h 42m
Length of Day
9h 39m
Waning Crescent, 14% of the Moon is Illuminated
Jan 27
Waning Crescent
Jan 30
New
Feb 6
First Quarter
Feb 14
Full
Feb 22
Last Quarter

Hourly Weather History & Observations

Time (PST) Temp. Windchill Dew Point Humidity Pressure Visibility Wind Dir Wind Speed Gust Speed Precip Events Conditions
12:37 AM 24.1 °F - 23.0 °F 96% 30.16 in 0.5 mi Calm Calm - N/A Fog Light Freezing Fog
12:47 AM 24.1 °F - 23.0 °F 96% 30.16 in 0.2 mi Calm Calm - N/A Fog Light Freezing Fog
12:56 AM 24.1 °F - 21.9 °F 91% 30.19 in 0.2 mi Calm Calm - N/A Fog Light Freezing Fog
1:24 AM 24.1 °F - 23.0 °F 96% 30.15 in 0.5 mi Calm Calm - N/A Fog Light Freezing Fog
1:54 AM 24.8 °F - 21.2 °F 86% 30.16 in 1.0 mi Calm Calm - N/A   Mist
1:56 AM 24.1 °F - 21.9 °F 91% 30.19 in 1.0 mi Calm Calm - N/A   Mist
2:19 AM 24.1 °F - 21.9 °F 91% 30.16 in 0.8 mi Calm Calm - N/A   Overcast
2:56 AM 24.1 °F 19.7 °F 21.9 °F 91% 30.21 in 0.5 mi NW 3.5 mph - N/A Fog Light Freezing Fog
3:56 AM 24.1 °F 16.0 °F 23.0 °F 96% 30.24 in 0.2 mi NNW 6.9 mph - N/A Fog Light Freezing Fog
4:39 AM 24.1 °F 15.2 °F 21.9 °F 91% 30.20 in 0.5 mi NW 8.1 mph - N/A Fog Light Freezing Fog
4:56 AM 24.1 °F 16.0 °F 21.9 °F 91% 30.27 in 0.5 mi West 6.9 mph - N/A Fog Light Freezing Fog
5:23 AM 23.0 °F 15.8 °F 21.9 °F 96% 30.20 in 0.2 mi NW 5.8 mph - N/A Fog Light Freezing Fog
5:56 AM 23.0 °F 17.0 °F 21.0 °F 92% 30.28 in 0.2 mi WNW 4.6 mph - N/A Fog Light Freezing Fog
6:56 AM 23.0 °F 18.4 °F 21.0 °F 92% 30.31 in 0.2 mi WNW 3.5 mph - N/A Fog Light Freezing Fog
7:21 AM 23.0 °F 18.4 °F 21.0 °F 92% 30.23 in 0.5 mi NNW 3.5 mph - N/A   Overcast
7:56 AM 23.0 °F - 21.0 °F 92% 30.33 in 0.5 mi Calm Calm - N/A   Overcast
8:36 AM 23.0 °F 18.4 °F 21.9 °F 96% 30.25 in 0.2 mi WNW 3.5 mph - N/A Fog Light Freezing Fog
8:54 AM 23.0 °F 17.0 °F 21.2 °F 93% 30.26 in 0.5 mi West 4.6 mph - 0.00 in Fog , Snow Light Snow
8:56 AM 23.0 °F 17.0 °F 21.9 °F 96% 30.35 in 0.5 mi West 4.6 mph - 0.00 in Fog , Snow Light Snow
9:21 AM 23.0 °F 17.0 °F 21.9 °F 96% 30.26 in 1.2 mi West 4.6 mph - 0.00 in   Overcast
9:26 AM 23.0 °F 17.0 °F 21.9 °F 96% 30.27 in 1.0 mi West 4.6 mph - 0.00 in   Overcast
9:56 AM 23.0 °F - 21.0 °F 92% 30.37 in 1.0 mi Calm Calm - 0.00 in   Overcast
10:56 AM 24.1 °F 19.7 °F 21.0 °F 88% 30.37 in 1.0 mi North 3.5 mph - N/A   Overcast
11:40 AM 24.1 °F 18.2 °F 21.9 °F 91% 30.28 in 7.0 mi NNW 4.6 mph - N/A   Overcast
11:56 AM 24.1 °F 18.2 °F 21.9 °F 91% 30.38 in 10.0 mi NW 4.6 mph - N/A   Overcast
12:31 PM 25.0 °F 16.3 °F 21.9 °F 88% 30.29 in 10.0 mi NNW 8.1 mph - N/A   Overcast
12:56 PM 25.0 °F 17.1 °F 21.9 °F 88% 30.39 in 10.0 mi WNW 6.9 mph - N/A   Overcast
1:18 PM 25.0 °F 19.3 °F 21.9 °F 88% 30.28 in 9.0 mi NNW 4.6 mph - N/A   Overcast
1:56 PM 25.0 °F 19.3 °F 21.9 °F 88% 30.37 in 10.0 mi WNW 4.6 mph - N/A   Overcast
2:56 PM 25.0 °F 17.1 °F 21.9 °F 88% 30.36 in 10.0 mi West 6.9 mph - N/A   Overcast
3:56 PM 24.1 °F 17.0 °F 21.0 °F 88% 30.37 in 10.0 mi WNW 5.8 mph - N/A   Overcast
4:56 PM 24.1 °F 18.2 °F 21.0 °F 88% 30.38 in 10.0 mi NW 4.6 mph - N/A   Overcast
5:56 PM 24.1 °F 19.7 °F 21.0 °F 88% 30.39 in 10.0 mi NW 3.5 mph - N/A   Overcast
6:09 PM 24.1 °F 19.7 °F 21.0 °F 88% 30.29 in 10.0 mi NW 3.5 mph - N/A   Overcast
6:56 PM 24.1 °F - 21.0 °F 88% 30.37 in 10.0 mi Calm Calm - N/A   Overcast
7:10 PM 24.1 °F 19.7 °F 21.0 °F 88% 30.29 in 10.0 mi NW 3.5 mph - N/A   Overcast
7:56 PM 24.1 °F - 21.0 °F 88% 30.38 in 10.0 mi Calm Calm - N/A   Overcast
8:30 PM 24.1 °F - 21.0 °F 88% 30.28 in 10.0 mi Calm Calm - N/A   Overcast
8:56 PM 25.0 °F - 21.0 °F 85% 30.37 in 10.0 mi Calm Calm - N/A   Overcast
9:56 PM 25.0 °F - 21.0 °F 85% 30.37 in 10.0 mi Calm Calm - N/A   Overcast
10:56 PM 25.0 °F 20.7 °F 21.0 °F 85% 30.39 in 10.0 mi NNW 3.5 mph - N/A   Overcast
11:37 PM 25.0 °F - 21.0 °F 85% 30.29 in 10.0 mi Calm Calm - N/A   Overcast
11:56 PM 25.0 °F - 21.0 °F 85% 30.39 in 10.0 mi Calm Calm - N/A   Overcast